{"data":{"norad_id":63456,"epoch":"2026-09-20T10:41:21.232032Z","epoch_age_seconds":160227,"freshness":"FRESH","line1":"1 63456U 25069Z   26263.44538463  .00014093  00000+0  42734-3 0  9991","line2":"2 63456  53.1602 309.9504 0002143  52.3068 307.8128 15.34406950 83228","mean_motion":15.3440695,"eccentricity":0.0002143,"inclination_deg":53.1602,"raan_deg":309.9504,"arg_perigee_deg":52.3068,"mean_anomaly_deg":307.8128,"bstar":0.00042734,"rev_number":8322,"period_min":93.847333003803,"perigee_km":461.2165957837,"apogee_km":464.14857105716,"semimajor_km":6840.8195834204,"source":"CELESTRAK","updated_at":"2026-09-21T09:00:35.006172Z"}}